Regional Weather Roundup
Issued by NWS

Home | Current Version | Previous Version | Graphics & Text | Print | Product List | Glossary On
Versions: 1 2 3 4 5 6 7 8 9 10 11 12 13 14 15 16 17 18 19 20 21 22 23 24 25 26 27 28 29 30 31 32 33 34 35 36 37 38 39 40 41 42 43 44 45 46 47 48 49 50
000
ASUS45 KPSR 291310
RWRAZ

ARIZONA HOURLY REGIONAL WEATHER ROUNDUP
NATIONAL WEATHER SERVICE PHOENIX AZ
600 AM MST WED JUL 29 2015

NOTE: FAIR INDICATES FEW OR NO CLOUDS BELOW 12,000 FEET WITH NO
SIGNIFICANT WEATHER AND/OR OBSTRUCTIONS TO VISIBILITY.

AZZ001>003-036-291400-
NORTHWEST ARIZONA

CITY           SKY/WX    TMP DP  RH WIND       PRES   REMARKS
BULLHEAD CITY  PTCLDY    86  50  28 CALM      29.87R
KINGMAN        PTCLDY    73  44  35 SE7       30.08R
$$

AZZ004>008-015-016-018-291400-
NORTH CENTRAL ARIZONA

CITY           SKY/WX    TMP DP  RH WIND       PRES   REMARKS
GRAND CANYON   PTCLDY    47  28  47 CALM      30.31S
WILLIAMS       MOCLDY    55  34  44 SE7       30.39R
PRESCOTT       MOCLDY    70  59  68 SE7       30.20R
FLAGSTAFF      CLEAR     54  48  80 CALM      30.35R
PAYSON         CLOUDY    70  55  60 E5        30.23R
PAGE           PTCLDY    70  31  23 S5        30.15R
$$

AZZ009>014-017-291400-
NORTHEAST ARIZONA

CITY           SKY/WX    TMP DP  RH WIND       PRES   REMARKS
WINSLOW        MOCLDY    68  53  58 SW5       30.18R
SAINT JOHNS    CLOUDY    68  55  63 SE6       30.26R
WINDOW ROCK    MOCLDY    60  47  61 CALM      30.35R
SHOW LOW       CLOUDY    64  48  55 S8        30.31R
$$

AZZ023-291400-
GREATER PHOENIX AREA

CITY           SKY/WX    TMP DP  RH WIND       PRES   REMARKS
PHOENIX        CLOUDY    88  61  40 SE6       29.92R
GLENDALE       CLOUDY    88  63  42 CALM      29.94
LUKE AFB       CLOUDY    86  64  48 NW3       29.92R
DEER VALLEY    MOCLDY    85  59  41 CALM      29.95R
SCOTTSDALE     MOCLDY    86  60  41 CALM      29.97R
MESA-GATEWAY   MOCLDY    82  63  51 CALM      29.97R
CHANDLER       MOCLDY    84  66  54 E5        29.95
$$

AZZ027-028-291400-
SOUTHWEST MARICOPA COUNTY AND PINAL COUNTY

CITY           SKY/WX    TMP DP  RH WIND       PRES   REMARKS
CASA GRANDE    CLOUDY    81  64  57 CALM      29.96R
GILA BEND      MOCLDY    79  73  83 SW2       29.91S
$$

AZZ503-504-507>509-291400-
SOUTHEAST ARIZONA

CITY           SKY/WX    TMP DP  RH WIND       PRES   REMARKS
TUCSON         CLOUDY    75  67  76 SW3       30.06R
DAVIS-MONTHAN  LGT RAIN  74  67  79 SW3       30.04R
RYAN FIELD       N/A     75  72  88 N7        30.05
SIERRA VISTA   CLOUDY    70  57  63 S12       30.19R
DOUGLAS          N/A    N/A N/A N/A MISG      30.15S
SAFFORD        CLOUDY    79  59  50 SE3       30.08R
$$

AZZ020-021-025-026-031-291400-
SOUTHWEST ARIZONA

CITY           SKY/WX    TMP DP  RH WIND       PRES   REMARKS
YUMA           CLOUDY    90  66  45 SE15      29.86R
$$

CAZ031-033-041-043-047-048-061-291400-
SOUTHERN CALIFORNIA

CITY           SKY/WX    TMP DP  RH WIND       PRES   REMARKS
DOWNTOWN L.A.  CLOUDY    66  63  90 CALM      29.91R FOG
L.A. AIRPORT   CLOUDY    66  63  90 W5        29.92R FOG
SAN DIEGO      CLOUDY    70  62  76 CALM      29.93R
BURBANK        CLEAR     66  61  84 SE3       29.91S
ONTARIO        PTCLDY    67  62  84 SW3       29.92S
RIVERSIDE      CLEAR     67  62  84 CALM      29.92R
PALM SPRINGS   PTCLDY    84  53  34 NW7       29.88R
EL CENTRO NAS  PTCLDY    82  72  71 N7        29.83R
IMPERIAL       LGT RAIN  84  73  69 E3        29.81R
BLYTHE         MOCLDY    87  68  52 S7        29.87R
NEEDLES        PTCLDY    92  57  30 SW10      29.88R
$$

NVZ020-UTZ003-291400-
SOUTHERN NEVADA-UTAH

CITY           SKY/WX    TMP DP  RH WIND       PRES   REMARKS
LAS VEGAS      PTCLDY    81  35  19 W3        29.95R
SALT LAKE CITY CLEAR     57  42  57 CALM      30.27R
$$

NMZ009-TXZ055-291400-
NEW MEXICO-WEST TEXAS

CITY           SKY/WX    TMP DP  RH WIND       PRES   REMARKS
ALBUQUERQUE    CLOUDY    72  55  55 CALM      30.29R
EL PASO        CLOUDY    73  65  75 NE6       30.16S
$$


........................KEY........................
SKY/WX - SKY CONDITION/WEATHER
TMP    - TEMPERATURE IN FAHRENHEIT
DP     - DEW POINT IN FAHRENHEIT
RH     - RELATIVE HUMIDITY IN PERCENT
WIND   - DIRECTION AND SPEED IN MILES PER HOUR (MPH)
VRB    - VARIABLE WIND DIRECTION
PRES   - MEAN SEA LEVEL PRESSURE IN INCHES OF MERCURY
         F - FALLING PRESSURE   R - RISING PRESSURE
         S - STEADY PRESSURE
VSB    - VISIBILITY IN MILES
HX     - HEAT INDEX IN FAHRENHEIT
WCI    - WIND CHILL INDEX IN FAHRENHEIT
TC     - TEMPERATURE IN CELSIUS WHICH IS ALSO KNOWN AS
         TEMPERATURE IN CENTIGRADE
AFB    - AIR FORCE BASE
         LUKE AFB IS LUKE AIR FORCE BASE
         DAVIS-MONTHAN IS DAVIS-MONTHAN AIR FORCE BASE
NAS    - NAVAL AIR STATION
         EL CENTRO NAS IS EL CENTRO NAVAL AIR STATION
N/A    - NOT AVAILABLE



USA.gov is the U.S. government's official web portal to all federal, state and local government web resources and services.